Regional Weather Roundup
Issued by NWS

Home | Current Version | Previous Version | Text Only | Print | Product List | Glossary On
Versions: 1 2 3 4 5 6 7 8 9 10 11 12 13 14 15 16 17 18 19 20 21 22 23 24 25 26 27 28 29 30 31 32 33 34 35 36 37 38 39 40 41 42 43 44 45 46 47 48 49 50
000
ASUS43 KFSD 010110
RWRSD

WEATHER ROUNDUP FOR SOUTH DAKOTA
NATIONAL WEATHER SERVICE SIOUX FALLS SD
800 PM CDT WED AUG 31 2016

NOTE: "FAIR" INDICATES FEW OR NO CLOUDS BELOW 12,000 FEET WITH NO
SIGNIFICANT WEATHER AND/OR OBSTRUCTIONS TO VISIBILITY.


SDZ001>005-009-010-012>017-010200-
NORTHWEST AND NORTH CENTRAL SOUTH DAKOTA

CITY           SKY/WX    TMP DP  RH WIND       PRES   REMARKS
BUFFALO          N/A     81  51  35 S20G29    30.03R
FAITH            N/A     80  56  43 S12       30.13R
MOBRIDGE       CLEAR     78  59  51 E12       30.11S
$$

SDZ012>016-024>037-041>051-057-063-072>074-010200-
SOUTHWEST AND SOUTH CENTRAL SOUTH DAKOTA

CITY           SKY/WX    TMP DP  RH WIND       PRES   REMARKS
RAPID CTY ARPT CLEAR     75  55  49 SE13      30.13F
PIERRE         CLEAR     79  62  56 SE13      30.11S
CUSTER         CLEAR     68  48  48 SE7       30.27F
ELLSWORTH AFB  CLEAR     75  55  50 SE13      30.13S
PHILIP         CLEAR     79  59  50 SE8       30.12S
PINE RIDGE     CLEAR     76  57  51 SE12      30.17S
WINNER         FAIR      78  63  59 SE8       30.16R
$$

SDZ004>011-016>023-039-040-010200-
NORTHEAST SOUTH DAKOTA

CITY           SKY/WX    TMP DP  RH WIND       PRES   REMARKS
ABERDEEN       CLEAR     75  63  66 E6        30.16R
WATERTOWN      CLEAR     74  58  57 E7        30.19R
BROOKINGS      CLEAR     74  59  59 E6        30.19R
SISSETON         N/A     70  62  76 CALM      30.17R
$$

SDZ017-020-022-023-036>040-048>070-010200-
SOUTHEAST SOUTH DAKOTA

CITY           SKY/WX    TMP DP  RH WIND       PRES   REMARKS
SIOUX FALLS    MOCLDY    73  60  63 NE6       30.17R
HURON          CLEAR     76  58  53 SE5       30.14S
CHAMBERLAIN    CLEAR     77  64  64 SE6       30.15R
MITCHELL       CLEAR     76  59  55 S6        30.15S
YANKTON        CLEAR     75  57  53 E3        30.15R
$$

ABBREVIATIONS USED IN REMARKS
   TC - TEMPERATURE IN CELSIUS
  WCI - WIND CHILL INDEX
   HX - HEAT INDEX
  VSB - VISIBILITY





USA.gov is the U.S. government's official web portal to all federal, state and local government web resources and services.